Location: Igon
(43.1667°N, 0.2333°W)
Time: 21:57:35
(UTC+00:00)

FALCON 9 DEB - Pass Details

Date: 29 November 2020
Orbit: 373 x 391 km, 53.0° (Epoch: 20 January)

Event Time Altitude Azimuth Distance (km) Brightness Sun altitude
Exits shadow 05:56:05 24° 309° (NW) 864 4.1 -13.4°
Maximum altitude 05:56:55 28° 337° (NNW) 789 4.1 -13.2°
Drops below altitude 10° 05:59:46 10° 38° (NE) 1,446 6.0 -12.7°
Sets 06:02:02 0° 51° (NE) 2,308 7.3 -12.3°
